sat.trackr.live / text

‹ back to catalog

TRANSPORTER-10 OBJECT AW

NORAD 59142 · 2024-043AW

PAYLOAD ACTIVE UNKNOWN

§ Identity

Operator
Country
TBD
Launch date
2024-03-04
Launch site
AFWTR
Launch vehicle
Mass (kg)
RCS (m²)

External: N2YO · Heavens-Above · Gunter

§ Orbital elements

Epoch: 2026-06-11T15:13:55.021440Z

Period
88.15 min
Inclination
97.5165°
Eccentricity
0.0013165
Mean motion
16.33536531 rev/d
Perigee alt
174.4 km
Apogee alt
191.7 km
Semi-major
6,561.2 km
B*
6.2561e-4
RAAN
323.6184°
Arg perigee
265.7642°
Mean anomaly
94.2149°
Rev number
12,773

§ Raw data

TRANSPORTER-10 OBJECT AW1 59142U 24043AW  26162.63466460  .03928269  25839-5  62561-3 0  99902 59142  97.5165 323.6184 0013165 265.7642  94.2149 16.33536531127736

JSON: /api/v1/satellites/59142 · /tle

For live sub-satellite position, see the globe view (requires WebGL).

§ Visibility from observer

Set your observer location to see the next 7 days of passes ≥ 10°. The values pass through the URL so the page stays shareable.

No JS? Fill the form by hand. The geolocation button needs JavaScript.